User: anonymous   Login
Location: Unspecified
(0.0000°N, 0.0000°E)
Time: 18:19:38
(UTC+01:00)
Language:

ARIANE 5 R/B - Orbit

View from above orbital plane
View from above orbital plane
View from above satellite
View from above satellite

Ground track
Ground track

The orbit data is extracted from the following two-line orbital elements,

1 28379U 04027B   15083.97794425 -.00000267  00000-0  24263-2 0  9991
2 28379 006.6320 247.1687 7290056 247.5928 026.2743 02.07924310 81178
Epoch (UTC): 24 March 2015 23:28:14
Eccentricity: 0.7290056
inclination: 6.6320°
perigee height: 648 km
apogee height: 38454 km
right ascension of ascending node: 247.1687°
argument of perigee: 247.5928°
revolutions per day: 2.07924310
mean anomaly at epoch: 26.2743°
orbit number at epoch: 8117

The dashed part of the orbit path shows where the satellite is in the earth's shadow,  

DLR